Orbital Elements at Epoch 2459000.5 (2020-May-31.0) TDB
Reference: JPL 17 (heliocentric ecliptic J2000)
Element | Value | Uncertainty (1-sigma) | Units |
e | .1848261289733668 | 4.8794e-08 | |
a | 2.537037523626212 | 1.6979e-08 | au |
q | 2.068126699074203 | 1.3019e-07 | au |
i | 9.831425652522261 | 1.4302e-05 | deg |
node | 220.6753531744492 | 2.2876e-05 | deg |
peri | 73.11616567901017 | 5.7425e-05 | deg |
M | 306.8390685053153 | 5.1498e-05 | deg |
tp | 2459218.461026294896 (2021-Jan-03.96102630) | 0.00021207 | TDB |
period | 1476.008174800472 4.04 | 1.4818e-05 4.057e-08 | d yr |
n | .2439010881824316 | 2.4485e-09 | deg/d |
Q | 3.005948348178222 | 2.0118e-08 | au |
|
| | Orbit Determination Parameters
Additional Information
|